Regional Weather Roundup
Issued by NWS Jackson, KY

Home | Current Version | Previous Version | Text Only | Print | Product List | Glossary On
Versions: 1 2 3 4 5 6 7 8 9 10 11 12 13 14 15 16 17 18 19 20 21 22 23 24 25 26 27 28 29 30 31 32 33 34 35 36 37 38 39 40 41 42 43 44 45 46 47 48 49 50
000
ASUS43 KJKL 251710
RWRJKL

EAST KENTUCKY HOURLY WEATHER ROUNDUP
NATIONAL WEATHER SERVICE JACKSON KY
100 PM EDT SAT MAR 25 2017

NOTE: "FAIR" INDICATES FEW OR NO CLOUDS BELOW 12,000 FEET WITH
NO SIGNIFICANT WEATHER AND/OR OBSTRUCTIONS TO VISIBILITY.

* THESE REPORTS ARE NOT UNDER NWS QUALITY CONTROL AND MAY NOT
  REPORT WEATHER SUCH AS PRECIPITATION AND FOG.

KYZ079-080-083-085-087-088-110-112-115-119-120-251800
...EASTERN KENTUCKY...

CITY           SKY/WX    TMP DP  RH WIND       PRES   REMARKS
JACKSON        MOSUNNY   74  47  38 VRB7      30.17F
LONDON         PTSUNNY   71  47  42 S14       30.16F
SOMERSET*      CLOUDY    72  48  43 S14G21    30.16F
MONTICELLO*    CLOUDY    70  53  54 SE12      30.16F
WILLIAMSBURG*  PTSUNNY   72  50  46 SE12G17   30.16F
MIDDLESBORO*   PTSUNNY   72  50  46 S7G16     30.20F
HARLAN APT*    MOSUNNY   72  43  35 CALM      30.20F
PIKE CO APT*     N/A     73  48  40 S7        30.18F
BIG SANDY APT* CLOUDY    73  48  41 SW7       30.17F
MOREHEAD APT*  CLOUDY    72  46  40 S8        30.18S
ASHLAND*       CLOUDY    63  52  67 W9        30.15S
$$

KYZ035-036-041-042-044-050-067-078-099-251800
...CENTRAL KENTUCKY...

CITY           SKY/WX    TMP DP  RH WIND       PRES   REMARKS
MT STERLING*   MOSUNNY   72  50  46 SW9       30.16F
FLEMING/MASON* CLOUDY    69  51  52 S9        30.17S
DANVILLE*      CLOUDY    72  50  46 S16G23    30.13F
LEXINGTON      CLOUDY    73  48  41 S21G30    30.13F
FRANKFORT      CLOUDY    74  48  39 S14G23    30.10F
LOUISVILLE     PTSUNNY   76  48  37 S18G32    30.05F
LEBANON*         N/A     73  50  43 S18G26    30.10F
GLASGOW*       MOSUNNY   73  49  43 S15G25    30.08F
BOWLING GREEN  CLOUDY    74  51  44 S24G30    30.05F
$$

KYZ091>093-OHZ055-061-077-WVZ005-015-034-035-042-251800
...SOUTHERN OHIO/WEST VIRGINIA...

CITY           SKY/WX    TMP DP  RH WIND       PRES   REMARKS
COVINGTON      PTSUNNY   71  51  49 SW13G20   30.10F
COLUMBUS       CLOUDY    73  51  46 SW13      30.14F
DAYTON         CLOUDY    68  50  52 SW14G23   30.10F
WILMINGTON     CLOUDY    68  51  54 SW15      30.12F
HUNTINGTON     CLOUDY    72  47  40 SW3       30.16F
CHARLESTON     PTSUNNY   74  46  36 VRB3      30.17F
PINEVILLE*     SUNNY     74  40  29 MISG      30.25F
BECKLEY        SUNNY     70  45  40 CALM      30.23F
BLUEFIELD      MOSUNNY   67  43  41 S8        30.25
LOGAN CO APT*    N/A     73  46  38 CALM      30.19F
$$

VAZ002-007-008-TNZ017-027-036-066-071-251800
...SOUTHWEST VIRGINIA/EAST TENNESSEE...

CITY           SKY/WX    TMP DP  RH WIND       PRES   REMARKS
WISE*          MOSUNNY   68  43  40 S10G16    30.25F
JONESVILLE*      N/A     72  46  40 SW5       30.23F
ABINGDON*      PTSUNNY   69  47  45 W5        30.24F
BRISTOL        PTSUNNY   70  48  45 SW8       30.22F
MORRISTOWN*    SUNNY     68  48  49 N6        30.21F
SEVIERVILLE*   SUNNY     70  48  46 VRB3      30.20F
KNOXVILLE      PTSUNNY   69  49  48 S12G23    30.20F
LAFOLLETTE*    MOSUNNY   70  50  49 S18G28    30.22S
OAK RIDGE      PTSUNNY   72  49  44 S13G22    30.21F
CROSSVILLE     CLOUDY    64  50  60 S9G21     30.19S
NASHVILLE      CLOUDY    74  51  44 SW24G35   30.07F
$$

...KEY TO REMARKS...
VSB - VISIBILITY IN MILES
WCI - WIND CHILL INDEX
HX  - HEAT INDEX

$$



USA.gov is the U.S. government's official web portal to all federal, state and local government web resources and services.